Cahokia, IL

12:47 AM CDT on July 28, 2017 (GMT -0500)
Saint Louis Downtown

Weather History for KCPS - May, 2014

Change the Weather History Date:

Wednesday, May 14, 2014

  Actual Average Record
Temperature  
Mean Temperature 51 °F -  
Max Temperature 54 °F 70 °F 91 °F (2013)
Min Temperature 48 °F 56 °F 41 °F (1953)
Degree Days  
Heating Degree Days 14    
Growing Degree Days 1 (Base 50)    
Moisture  
Dew Point 46 °F    
Average Humidity 81    
Maximum Humidity 90    
Minimum Humidity 69    
Precipitation  
Precipitation 0.49 in - - ()
Sea Level Pressure  
Sea Level Pressure 30.11 in    
Wind  
Wind Speed 10 mph (North)    
Max Wind Speed 17 mph    
Max Gust Speed 26 mph    
Visibility 9 miles    
Events Rain    
Averages and records for this station are not official NWS values.
T = Trace of Precipitation, MM = Missing Value Source: NWS Daily Summary

Daily Weather History Graph

Daily Weather History Graph

Search for Another Location

Airport or City:

Trip Planner

Search our weather history database for the weather conditions in past years. The results will help you decide how hot, cold, wet, or windy it might be!

Date:

Astronomy

May. 14, 2014 Rise Set
Actual Time 5:49 AM CDT 8:04 PM CDT
Civil Twilight 5:20 AM CDT 8:34 PM CDT
Nautical Twilight 4:43 AM CDT 9:11 PM CDT
Astronomical Twilight 4:03 AM CDT 9:51 PM CDT
Moon 8:10 PM CDT (5/14) 5:47 AM CDT (5/14)
Length of Visible Light 15h 14m
Length of Day
14h 14m
Full, 100% of the Moon is Illuminated
May 14
Full
May 14
Full
May 21
Last Quarter
May 28
New
Jun 5
First Quarter

Hourly Weather History & Observations

Time (CDT) Temp. Dew Point Humidity Pressure Visibility Wind Dir Wind Speed Gust Speed Precip Events Conditions
12:53 AM 54.0 °F 48.9 °F 83% 30.19 in 10.0 mi North 4.6 mph - N/A   Clear
1:53 AM 54.0 °F 48.9 °F 83% 30.19 in 10.0 mi NNW 5.8 mph - N/A   Clear
2:53 AM 53.1 °F 48.0 °F 83% 30.19 in 10.0 mi NNW 5.8 mph - N/A   Clear
3:53 AM 54.0 °F 48.0 °F 80% 30.19 in 10.0 mi NNW 8.1 mph - N/A   Clear
4:53 AM 53.1 °F 46.9 °F 80% 30.18 in 10.0 mi North 9.2 mph - N/A   Clear
5:53 AM 53.1 °F 45.0 °F 74% 30.17 in 10.0 mi North 6.9 mph - N/A   Clear
6:53 AM 53.1 °F 44.1 °F 71% 30.17 in 10.0 mi North 9.2 mph - N/A   Mostly Cloudy
7:53 AM 53.1 °F 43.0 °F 69% 30.16 in 10.0 mi North 11.5 mph - N/A   Scattered Clouds
8:53 AM 53.1 °F 43.0 °F 69% 30.15 in 10.0 mi North 13.8 mph - N/A   Mostly Cloudy
10:53 AM 53.1 °F 45.0 °F 74% 30.15 in 10.0 mi North 11.5 mph - 0.01 in Rain Light Rain
11:53 AM 52.0 °F 46.0 °F 80% 30.14 in 10.0 mi North 11.5 mph - 0.02 in Rain Light Rain
12:53 PM 53.1 °F 46.9 °F 80% 30.10 in 10.0 mi North 13.8 mph - 0.05 in Rain Light Rain
1:53 PM 52.0 °F 46.0 °F 80% 30.10 in 9.0 mi NNW 13.8 mph - 0.04 in Rain Rain
2:53 PM 52.0 °F 46.0 °F 80% 30.08 in 10.0 mi North 12.7 mph - 0.06 in Rain Light Rain
3:53 PM 51.1 °F 46.9 °F 86% 30.04 in 4.0 mi North 16.1 mph - 0.15 in Rain Rain
4:53 PM 52.0 °F 46.9 °F 83% 30.04 in 10.0 mi NNE 15.0 mph - 0.06 in   Drizzle
5:53 PM 51.1 °F 45.0 °F 80% 30.02 in 10.0 mi NNE 12.7 mph 26.5 mph 0.00 in Rain Light Rain
6:53 PM 50.0 °F 44.1 °F 80% 30.05 in 8.0 mi North 16.1 mph 20.7 mph 0.02 in Rain Light Rain
7:53 PM 48.9 °F 46.0 °F 90% 30.08 in 5.0 mi North 9.2 mph - 0.02 in Rain Light Rain
8:00 PM 48.9 °F 46.0 °F 90% 30.07 in 3.0 mi NNW 10.4 mph - 0.00 in Rain Light Rain
8:04 PM 48.9 °F 46.0 °F 90% 30.08 in 3.0 mi NNW 12.7 mph 19.6 mph 0.01 in Rain Rain
8:53 PM 48.9 °F 46.0 °F 90% 30.08 in 9.0 mi NW 17.3 mph - 0.02 in Rain Light Rain
10:07 PM 48.0 °F 45.0 °F 89% 30.08 in 10.0 mi NNW 15.0 mph - 0.01 in Rain Light Rain
10:53 PM 48.0 °F 44.1 °F 86% 30.07 in 10.0 mi NNW 16.1 mph - 0.02 in Rain Light Rain
11:53 PM 48.0 °F 44.1 °F 86% 30.07 in 10.0 mi NW 10.4 mph - 0.02 in Rain Light Rain